Regional Weather Roundup
Issued by NWS Wakefield, VA

Home | Current Version | Previous Version | Graphics & Text | Print | Product List | Glossary On
Versions: 1 2 3 4 5 6 7 8 9 10 11 12 13 14 15 16 17 18 19 20 21 22 23 24 25 26 27 28 29 30 31 32 33 34 35 36 37 38 39 40 41 42 43 44 45 46 47 48 49 50
000
ASUS41 KAKQ 051514
RWRAKQ

REGIONAL WEATHER ROUNDUP
NATIONAL WEATHER SERVICE WAKEFIELD VA
1100 AM EDT TUE MAY 05 2015

Note: "fair" indicates few or no clouds below 12,000 feet with no
significant weather and/or obstructions to visibility. * = Denotes
station may not report precipitation (e.g., rain,snow,etc.),
thunder or fog.

VAZ042-051-052>054-056-051600-
NORTHERN VIRGINIA

CITY           SKY/WX    TMP DP  RH WIND       PRES   REMARKS
WASH NATIONAL  MOSUNNY   75  60  59 S6        30.27S
DULLES         PTSUNNY   77  58  51 CALM      30.27S
FORT BELVOIR   SUNNY     75  59  57 VRB1      30.27S
QUANTICO       MOSUNNY   71  59  65 S8        30.28S
FREDERICKSBRG* SUNNY     78  60  53 CALM      30.27S
STAFFORD*      SUNNY     76  56  50 S6        30.31S
WARRENTON      MOSUNNY   79  60  52 SW3       30.28R
CULPEPER*      NOT AVBL
MANASSAS*      PTSUNNY   75  61  60 CALM      30.28R
LEESBURG*      PTSUNNY   79  61  53 NW9       30.28S
WINCHESTER     MOSUNNY   77  46  33 SW5       30.28S
FRONT ROYAL*   FAIR      72  55  56 SW5       30.28S
LURAY*         FAIR      73  59  60 S5        30.29S
$$

VAZ048-049-060>072-079>083-051600-
CENTRAL AND SOUTH CENTRAL VIRGINIA

CITY           SKY/WX    TMP DP  RH WIND       PRES   REMARKS
RICHMOND       MOSUNNY   75  57  53 SW10      30.30S
CHESTERFIELD*  FAIR      73  54  49 S8        30.31F
PETERSBURG*    SUNNY     76  55  49 S7        30.31S
HANOVER        SUNNY     74  58  57 VRB6      30.31S
TAPPAHANNOCK*  SUNNY     75  54  48 SW7       30.30S
QUINTON*       FAIR      73  58  59 SW5       30.30S
CHARLOTTSVILLE MOSUNNY   77  59  53 SE5       30.28S
GORDONSVILLE*  FAIR      75  60  59 SW3       30.28S
ORANGE*        MOSUNNY   77  59  53 CALM      30.29S
LOUISA*        SUNNY     75  59  57 CALM      30.28S
BUMPASS*       FAIR      73  58  60 CALM      30.29S
FARMVILLE*     SUNNY     75  59  56 S3        30.29S
CREWE*         FAIR      74  57  56 SW3       30.31R
FORT PICKETT*  FAIR      73  58  59 S8G18     30.32R
CHASE CITY*    PTSUNNY   73  61  66 SW3       30.32S
CLARKSVILLE*   FAIR      72  59  64 SW7       30.32S
SOUTH HILL*    SUNNY     73  57  56 SW15      30.38S
LAWRENCEVILLE* FAIR      74  57  53 SW12      30.32S
EMPORIA*       SUNNY     73  54  49 S10G18    30.34F
$$

VAZ088>098-051600-
SOUTHEAST VIRGINIA

CITY           SKY/WX    TMP DP  RH WIND       PRES   REMARKS
NORFOLK        SUNNY     77  50  38 SW21      30.32S
VIRGINIA BEACH MOSUNNY   79  52  38 SW16      30.32F
NORFOLK NAVAL  MOSUNNY   81  53  37 SW15G21   30.33F
WEST POINT*    SUNNY     78  53  41 SW7       30.32S
SALUDA*        FAIR      74  56  52 SW8       30.29S
NEWPORT NEWS   SUNNY     80  55  42 SW20      30.32S
LANGLEY AFB    SUNNY     75  55  50 SW20      30.30S
FORT EUSTIS    SUNNY     75  56  50 SW9       30.30S
WILLIAMSBURG*  SUNNY     81  57  44 W10G17    30.32S
HR EXEC AP*    FAIR      77  54  44 SW13G23   30.35S
FRANKLIN*      SUNNY     75  54  48 SW9G18    30.34S
WAKEFIELD      SUNNY     76  54  46 SW10      30.32S
$$

VAZ020-022-025-037-045-051600-
WEST CENTRAL AND SOUTHWEST VIRGINIA

CITY           SKY/WX    TMP DP  RH WIND       PRES   REMARKS
STAUNTON*      MOSUNNY   76  56  51 CALM      30.32S
WAYNESBORO*    FAIR      75  55  49 CALM      30.32R
HOT SPRINGS VA SUNNY     69  47  45 W12       30.40S
LYNCHBURG      SUNNY     74  56  53 VRB5      30.32S
DANVILLE       MOSUNNY   74  58  57 S7        30.32F
SOUTH BOSTON*  FAIR      71  57  61 MISG      30.32S
MARTINSVILLE   SUNNY     76  57  51 S3        30.35S
ROANOKE        SUNNY     77  55  46 VRB3      30.33F
BLACKSBURG     SUNNY     72  52  49 W3        30.39F
DUBLIN*        SUNNY     75  52  44 CALM      30.37F
MARION*        SUNNY     72  53  51 W8        30.41F
HILLSVILLE*    SUNNY     71  50  46 NW3       30.39S
RICHLANDS*       N/A    N/A N/A N/A MISG        N/A
WISE*          SUNNY     72  48  43 CALM      30.40F
ABINGDON*      SUNNY     72  54  53 W5        30.39S
$$

MDZ021>025-VAZ099-100-051600-
SOUTHERN MARYLAND AND THE DELMARVA PENINSULA

CITY           SKY/WX    TMP DP  RH WIND       PRES   REMARKS
PATUXENT RIVER MOSUNNY   74  58  57 W8        30.27S
BAY BRIDGE APT   N/A    N/A N/A N/A SE7       30.27R
LEONARDTOWN    SUNNY     72  55  56 SW8       30.29S
DOVER          MOSUNNY   79  57  47 W6        30.24R
GEORGETOWN     SUNNY     75  57  53 S10       30.27S
EASTON         MOSUNNY   75  59  57 SW9       30.31R
CAMBRIDGE      MOSUNNY   73  55  53 CALM      30.27S
SALISBURY      SUNNY     74  56  53 SW10      30.28S
OCEAN CITY     SUNNY     75  56  51 SW13      30.28R
WALLOPS ISLAND MOSUNNY   75  55  49 SW13      30.29S
ACCOMACK*      SUNNY     73  25  16 SW20G25   30.30F
$$

NCZ012>017-030>032-051600-
NORTH CENTRAL AND EASTERN NORTH CAROLINA

CITY           SKY/WX    TMP DP  RH WIND       PRES   REMARKS
ROANOKE RAPIDS FAIR      73  55  53 S13G20    30.34F
RALEIGH        MOSUNNY   74  57  55 SW10      30.36S
ELIZABETH CITY PTSUNNY   75  53  46 SW12      30.37R
AHOSKIE*       SUNNY     74  52  45 S8        30.36S
EDENTON*       PTSUNNY   73  55  52 W5        30.37S
CURRITUCK*     PTSUNNY   75  47  36 SW12G17   30.36S
KILL DEVIL HLS SUNNY     76  50  39 SW8       30.36S
MANTEO         SUNNY     74  51  44 SW8       30.37S
CAPE HATTERAS  SUNNY     70  52  52 SW6       30.39R
TARBORO*       FAIR      75  53  46 SW12      30.37S
GOLDSBORO      NOT AVBL
WASHINGTON     SUNNY     74  50  42 SW9       30.38R
GREENVILLE     SUNNY     75  52  43 SW6       30.37S
NEW BERN       SUNNY     76  48  37 CALM      30.39R
WILMINGTON     SUNNY     75  51  43 SE9       30.37R
$$

VAZ048-051600-
ELSEWHERE

CITY           SKY/WX    TMP DP  RH WIND       PRES   REMARKS
HARRISBURG PA  PTSUNNY   74  57  55 W8        30.25R
BALTIMORE      PTSUNNY   77  56  48 CALM      30.25S
ANNAPOLIS      MOSUNNY   65  58  78 SE12      30.26R
ANDREWS AFB    MOSUNNY   78  58  50 VRB1      30.26S
PHILADELPHIA   PTSUNNY   74  55  51 W7        30.25R
HENDERSON NC   SUNNY     74  54  49 SW8       30.34S
GREENSBORO     MOSUNNY   72  57  59 SW8G17    30.33F
ROCKY MOUNT    SUNNY     75  53  46 S12       30.37S
$$

VAZ100-051600-
MARINE

STATION/POSITION TIME  TEMP    WIND        PRES    WAVE   SWELL
                       AIR SEA DIR/SP/G            HT/PER HT/PER
                 (UTC) (F)     (DEG/KT/KT) (MB)    (FT/S) (FT/S)
BRANDYWINE LGT   1400   66 56  250/ 13/ 15 1024.6R
CAPE MAY NJ      1400   64 61  240/  5/  6 1024.2S
LEWES DE         1400   72 54  270/ 12/ 15 1024.3F
15NM E FENWICK I 1450   56 53              1024.8R   3/ 5
OCEAN-CITY-INLET 1400   69 52  270/ 12/ 16 1024.9F
WACHAPREAGUE VA  1400   73 64  230/ 13/ 21 1026.1S
THOMAS POINT MD  1500   65 59  150/ 10/ 10 1025.4R
GOOSES REEF MD   1500   64 60                N/A     1
COVE POINT MD    1400   70     260/  6/  9 1025.5S
SOLOMONS ISLAND  1400      60                N/A
BISHOPS HEAD MD  1400   65 65  230/ 11/ 12 1025.2R
PINEY POINT MD   1400          280/  4/  5   N/A
CAMBRIDGE MD     1400   70 62  250/  5/  8 1024.8F
LEWISETTA VA     1400   70 66              1025.1R
RAPPAHANNOCK LGT 1400          200/ 13/ 14 1026.7S
YORK RVR RNG VA  1400   70     240/ 15/ 19 1025.6F
YORKTOWN VA      1400   72 61  230/ 12/ 17 1025.7F
JAMESTOWN VA     1500   72 66  250/ 14/ 17 1025.5S
DOMINION TERM VA 1400   70     240/ 16/ 19 1026.8F
KIPTOPEKE VA     1400      65  210/  6/  7   N/A
CHES BAY BRIDGE  1406   70 60  210/ 18/ 19 1026.3F
CAPE HENRY VA    1400   73     220/ 11/ 16 1025.6F
CHESAPEAKE LGHT  1400   64     220/ 13/ 13 1027.9S
WILLOUBY STN VA  1400   67     230/ 14/ 14 1027.3F
S CRANEY ISL VA  1400          220/  8/ 10 1027.0F
CAPE HENRY BUOY  1428      60                N/A     2/12   2/12
1ST LANDING BUOY 1500      60                N/A
CAPE CHARLES BUO 1426      58                N/A     2/11   2/11
OFFSHORE WE BUOY 1411      53                N/A     2/ 9   2/ 9
64NM E OF VA BCH 1450   61 60  220/ 12/ 12 1027.9R   2/11   2/11
DUCK PIER NC     1400   68 53  230/ 10/ 12 1027.3S
44056 DUCK FRF   1411      58                N/A     2/12   2/12
OREGON INLET NC  1400   69 67  200/  5/  7 1028.6R
HATTERAS NC      1406   73 65  210/  6/  8 1028.3R
DIAMOND SHLS NC  1450   73 77  170/ 10/ 12 1029.0R   3/12   2/12
CAPE LOOKOUT NC  1500   71     110/  2/  2 1028.4R
$$


USA.gov is the U.S. government's official web portal to all federal, state and local government web resources and services.